Flag for U.S.A. Weather past 2 weeks in Santa Clarita, California, U.S.A.

Now
61 °F

Clear.


Feels Like: 61 °F
Forecast: 54 / 66 °F
Wind: No wind

Location: Van Nuys Airport

Current Time: Jan 26, 2015 at 1:31:24 AM

Latest Report: Jan 26, 2015 at 12:51 AM


Visibility: 10 mi

Pressure: 30.01 "Hg

Humidity: 41%

Dew point: 37 °F

Location of Santa ClaritaLocation

Historic Weather in Santa Clarita — Graph

°F

Santa Clarita temperature yesterday

Maximum temperature yesterday: 80 °F (at 12:51 PM)
Minimum temperature yesterday: 50 °F (at 3:51 AM)
Average temperature yesterday: 67 °F

Past Weeks' High & Low Weather Summary

 TemperatureHumidityPressure
High80 °F (Jan 25, 12:51 PM)97% (Jan 10, 11:51 PM)30.27 "Hg (Jan 10, 11:51 PM)
Low43 °F (Jan 15, 6:51 AM)11% (Jan 23, 11:51 AM)29.90 "Hg (Jan 20, 1:51 PM)
Average60 °F50%30.09 "Hg
* Reported Jan 10 11:51 PM — Jan 25 11:51 PM, Santa Clarita, Weather by CustomWeather, © 2014

Note: Actual official high and low records may vary slightly from our data, if they occured in-between our weather recording intervals... More about our weather records

Advertising

Santa Clarita weather history for previous 24 hours

 ConditionsComfort  
Time TempWeatherWind HumidityBarometerVisibility
11:51 PM
Jan 25
60 °FClear.No wind44%30.03 "Hg10 mi
10:51 PM59 °FClear.3 mph46%30.04 "Hg10 mi
9:51 PM60 °FClear.No wind41%30.03 "Hg10 mi
8:51 PM62 °FClear.No wind38%30.04 "Hg10 mi
7:51 PM65 °FClear.No wind32%30.01 "Hg10 mi
6:51 PM67 °FClear.No wind29%29.99 "Hg10 mi
5:51 PM72 °FClear.No wind22%29.98 "Hg10 mi
4:51 PM76 °FSunny.3 mph19%29.97 "Hg10 mi
3:51 PM74 °FSunny.6 mph22%29.96 "Hg10 mi
2:51 PM75 °FSunny.10 mph24%29.95 "Hg10 mi
1:51 PM79 °FSunny.10 mph18%29.95 "Hg10 mi
12:51 PM80 °FSunny.5 mph18%29.96 "Hg10 mi
11:51 AM78 °FSunny.7 mph20%29.99 "Hg10 mi
10:51 AM77 °FSunny.8 mph24%30.01 "Hg10 mi
9:51 AM79 °FSunny.No wind20%30.01 "Hg10 mi
8:51 AM73 °FSunny.13 mph19%30.02 "Hg10 mi
7:51 AM68 °FSunny.13 mph22%30.01 "Hg10 mi
6:51 AM65 °FClear.13 mph22%30.01 "Hg10 mi
5:51 AM65 °FClear.7 mph20%30.01 "Hg10 mi
4:51 AM54 °FClear.No wind35%30.01 "Hg10 mi
3:51 AM50 °FClear.5 mph44%30.01 "Hg10 mi
2:51 AM53 °FClear.No wind38%30.02 "Hg10 mi
1:51 AM54 °FClear.No wind35%30.02 "Hg10 mi
Weather by CustomWeather, © 2014

See weather overviewHow to use our weather pages